TimeEDT,TemperatureF,Dew PointF,Humidity,Sea Level PressureIn,VisibilityMPH,Wind Direction,Wind SpeedMPH,Gust SpeedMPH,PrecipitationIn,Events,Conditions,WindDirDegrees,DateUTC
12:02 AM,46.4,44.6,93,29.71,6.0,West,8.1,-,0.00,Rain,Light Rain,260,2013-11-02 04:02:00
12:10 AM,46.4,44.6,93,29.71,6.0,West,10.4,-,0.00,Rain,Light Rain,260,2013-11-02 04:10:00
12:53 AM,46.0,44.1,93,29.71,6.0,West,8.1,-,0.01,Rain,Light Rain,260,2013-11-02 04:53:00
1:18 AM,46.4,44.6,93,29.70,7.0,West,6.9,-,0.00,,Overcast,260,2013-11-02 05:18:00
1:33 AM,46.4,42.8,87,29.70,8.0,West,8.1,-,0.00,,Overcast,270,2013-11-02 05:33:00
1:43 AM,46.4,42.8,87,29.70,8.0,West,8.1,-,0.00,,Overcast,270,2013-11-02 05:43:00
1:53 AM,46.0,44.1,93,29.71,8.0,West,9.2,-,0.00,,Overcast,270,2013-11-02 05:53:00
2:22 AM,46.4,44.6,93,29.71,6.0,West,8.1,-,0.00,,Overcast,260,2013-11-02 06:22:00
2:27 AM,46.4,44.6,93,29.71,6.0,West,8.1,-,0.00,,Overcast,260,2013-11-02 06:27:00
2:34 AM,46.4,44.6,93,29.71,6.0,West,9.2,-,0.00,,Overcast,270,2013-11-02 06:34:00
2:53 AM,46.0,43.0,89,29.72,7.0,West,8.1,-,0.01,,Overcast,280,2013-11-02 06:53:00
2:59 AM,44.6,42.8,93,29.71,7.0,West,9.2,-,N/A,,Overcast,270,2013-11-02 06:59:00
3:30 AM,44.6,42.8,93,29.71,7.0,West,8.1,-,N/A,,Overcast,270,2013-11-02 07:30:00
3:44 AM,44.6,42.8,93,29.72,7.0,West,6.9,-,N/A,,Overcast,270,2013-11-02 07:44:00
3:53 AM,45.0,43.0,93,29.73,7.0,West,8.1,-,N/A,,Overcast,260,2013-11-02 07:53:00
4:02 AM,44.6,42.8,93,29.72,7.0,West,6.9,-,N/A,,Mostly Cloudy,260,2013-11-02 08:02:00
4:53 AM,45.0,42.1,90,29.73,6.0,WSW,6.9,-,N/A,,Overcast,250,2013-11-02 08:53:00
5:24 AM,44.6,42.8,93,29.73,5.0,WSW,8.1,-,N/A,,Overcast,250,2013-11-02 09:24:00
5:48 AM,44.6,42.8,93,29.73,4.0,West,9.2,-,N/A,,Overcast,260,2013-11-02 09:48:00
5:53 AM,45.0,43.0,93,29.75,4.0,West,9.2,-,N/A,,Overcast,270,2013-11-02 09:53:00
6:10 AM,44.6,42.8,93,29.74,4.0,West,9.2,-,N/A,,Overcast,260,2013-11-02 10:10:00
6:53 AM,45.0,42.1,90,29.76,5.0,West,9.2,-,N/A,,Mostly Cloudy,260,2013-11-02 10:53:00
7:53 AM,43.0,41.0,93,29.77,4.0,WSW,8.1,-,N/A,,Mostly Cloudy,250,2013-11-02 11:53:00
8:29 AM,44.6,42.8,93,29.77,4.0,WSW,8.1,-,N/A,,Overcast,250,2013-11-02 12:29:00
8:44 AM,44.6,42.8,93,29.78,3.0,West,8.1,-,N/A,,Overcast,260,2013-11-02 12:44:00
8:53 AM,44.1,42.1,93,29.79,3.0,West,8.1,-,N/A,,Overcast,260,2013-11-02 12:53:00
9:53 AM,46.0,43.0,89,29.81,5.0,West,10.4,-,N/A,,Overcast,270,2013-11-02 13:53:00
10:53 AM,46.9,43.0,86,29.83,10.0,WNW,9.2,-,N/A,,Overcast,290,2013-11-02 14:53:00
11:00 AM,46.4,42.8,87,29.82,10.0,WNW,9.2,-,N/A,,Overcast,300,2013-11-02 15:00:00
11:09 AM,46.4,42.8,87,29.83,10.0,WNW,10.4,-,N/A,,Overcast,300,2013-11-02 15:09:00
11:19 AM,48.2,42.8,82,29.83,10.0,NW,9.2,-,N/A,,Overcast,310,2013-11-02 15:19:00
11:32 AM,48.2,42.8,82,29.83,10.0,NW,11.5,-,N/A,,Overcast,320,2013-11-02 15:32:00
11:46 AM,48.2,42.8,82,29.84,10.0,NNW,10.4,-,N/A,,Overcast,330,2013-11-02 15:46:00
11:53 AM,48.9,43.0,80,29.86,10.0,NW,6.9,-,N/A,,Overcast,320,2013-11-02 15:53:00
12:53 PM,48.0,42.1,80,29.88,10.0,North,6.9,-,0.00,,Overcast,350,2013-11-02 16:53:00
1:53 PM,48.0,39.9,74,29.89,10.0,NNW,6.9,-,N/A,,Overcast,330,2013-11-02 17:53:00
2:53 PM,50.0,39.0,66,29.90,10.0,NNW,9.2,-,N/A,,Overcast,330,2013-11-02 18:53:00
3:10 PM,48.2,39.2,71,29.89,10.0,NW,11.5,-,N/A,,Overcast,320,2013-11-02 19:10:00
3:38 PM,46.4,42.8,87,29.92,9.0,NW,8.1,-,0.02,Rain,Light Rain,310,2013-11-02 19:38:00
3:53 PM,46.0,42.1,86,29.93,10.0,WNW,6.9,-,0.02,,Overcast,290,2013-11-02 19:53:00
4:53 PM,46.0,39.9,79,29.96,10.0,North,10.4,-,N/A,,Overcast,350,2013-11-02 20:53:00
5:10 PM,46.4,39.2,76,29.95,10.0,North,8.1,-,N/A,,Overcast,350,2013-11-02 21:10:00
5:53 PM,46.0,39.9,79,29.98,10.0,NNW,5.8,-,N/A,,Overcast,330,2013-11-02 21:53:00
6:53 PM,45.0,37.0,74,30.01,10.0,NW,9.2,-,N/A,,Overcast,310,2013-11-02 22:53:00
7:53 PM,44.1,37.0,76,30.03,10.0,WNW,9.2,-,N/A,,Overcast,300,2013-11-02 23:53:00
8:53 PM,43.0,36.0,76,30.05,10.0,WNW,9.2,-,0.00,,Overcast,300,2013-11-03 00:53:00
9:20 PM,44.6,37.4,76,30.05,10.0,NW,12.7,18.4,0.00,Rain,Light Rain,310,2013-11-03 01:20:00
9:45 PM,42.8,37.4,81,30.06,10.0,NW,12.7,-,0.00,,Overcast,320,2013-11-03 01:45:00
9:53 PM,43.0,37.9,82,30.07,10.0,NW,9.2,-,0.00,Rain,Light Rain,310,2013-11-03 01:53:00
10:53 PM,43.0,39.0,86,30.09,10.0,NNW,3.5,-,0.00,,Overcast,330,2013-11-03 02:53:00
11:27 PM,42.8,39.2,87,30.08,10.0,Calm,Calm,-,N/A,,Overcast,0,2013-11-03 03:27:00
11:53 PM,42.1,37.9,85,30.10,10.0,Calm,Calm,-,N/A,,Overcast,0,2013-11-03 03:53:00